Weather History for Eau Claire, WI

Change the Weather History Date:

Tuesday, March 26, 2013

  Actual Average Record
Temperature  
Mean Temperature 30 °F 36 °F  
Max Temperature 38 °F 46 °F 81 °F (2007)
Min Temperature 21 °F 26 °F -12 °F (1965)
Degree Days  
Heating Degree Days 35 29  
Month to date heating degree days 1106 905  
Since 1 July heating degree days 6965 6926  
Cooling Degree Days 0 0  
Month to date cooling degree days 0 0  
Year to date cooling degree days 0 0  
Moisture  
Dew Point 20 °F    
Average Humidity 64    
Maximum Humidity 84    
Minimum Humidity 44    
Precipitation  
Precipitation T in 0.06 in 1.06 in (1906)
Month to date precipitation 2.15 1.36  
Year to date precipitation 4.72 3.06  
Snow  
Snow T in 0.30 in 4.80 in (1936)
Month to date snowfall 23.7 7.6  
Since 1 July snowfall 66.2 43.9  
Snow Depth 13.00 in    
Sea Level Pressure  
Sea Level Pressure 30.26 in    
Wind  
Wind Speed 3 mph (West)    
Max Wind Speed 12 mph    
Max Gust Speed 14 mph    
Visibility 10 miles    
Events      
T = Trace of Precipitation, MM = Missing Value Source: NWS Daily Summary

Daily Weather History Graph

Daily Weather History Graph

Search for Another Location

Airport:

Trip Planner

Search our weather history database for the weather conditions in past years. The results will help you decide how hot, cold, wet, or windy it might be!

Date:

Astronomy

Mar. 26, 2013 Rise Set
Actual Time 6:57 AM CDT 7:26 PM CDT
Civil Twilight 6:28 AM CDT 7:55 PM CDT
Nautical Twilight 5:53 AM CDT 8:30 PM CDT
Astronomical Twilight 5:17 AM CDT 9:06 PM CDT
Moon 7:04 PM CDT (3/26) 6:14 AM CDT (3/26)
Length of Visible Light 13h 27m
Length of Day
12h 29m
Waxing Gibbous, 99% of the Moon is Illuminated
Mar 26
Waxing Gibbous
Mar 27
Full
Apr 2
Last Quarter
Apr 10
New
Apr 18
First Quarter

Hourly Weather History & Observations

Time (CDT) Temp. Windchill Dew Point Humidity Pressure Visibility Wind Dir Wind Speed Gust Speed Precip Events Conditions
12:56 AM 27.0 °F 23.0 °F 18.0 °F 69% 30.21 in 10.0 mi NNW 3.5 mph - N/A   Overcast
1:56 AM 27.0 °F - 18.0 °F 69% 30.21 in 10.0 mi Calm Calm - N/A   Overcast
2:56 AM 24.1 °F - 18.0 °F 77% 30.21 in 10.0 mi Calm Calm - N/A   Overcast
3:56 AM 24.1 °F - 18.0 °F 77% 30.22 in 10.0 mi Calm Calm - N/A   Overcast
4:56 AM 21.0 °F - 17.1 °F 85% 30.22 in 10.0 mi Calm Calm - N/A   Overcast
5:56 AM 23.0 °F 17.0 °F 18.0 °F 81% 30.23 in 10.0 mi West 4.6 mph - N/A   Overcast
6:56 AM 24.1 °F - 19.0 °F 81% 30.25 in 10.0 mi Calm Calm - N/A   Overcast
7:56 AM 25.0 °F 20.7 °F 19.0 °F 78% 30.26 in 10.0 mi WSW 3.5 mph - N/A   Overcast
8:56 AM 28.0 °F 24.2 °F 21.0 °F 75% 30.27 in 10.0 mi West 3.5 mph - N/A   Overcast
9:56 AM 30.9 °F - 21.0 °F 67% 30.28 in 10.0 mi Calm Calm - N/A   Overcast
10:56 AM 34.0 °F 31.0 °F 21.0 °F 59% 30.28 in 10.0 mi West 3.5 mph - N/A   Overcast
11:56 AM 36.0 °F 32.1 °F 21.0 °F 55% 30.27 in 10.0 mi WNW 4.6 mph - N/A   Overcast
12:56 PM 37.0 °F 32.4 °F 21.0 °F 52% 30.27 in 10.0 mi NW 5.8 mph - N/A   Overcast
1:56 PM 36.0 °F 29.0 °F 21.9 °F 57% 30.27 in 10.0 mi WSW 9.2 mph - N/A   Overcast
2:56 PM 36.0 °F 28.5 °F 21.9 °F 57% 30.26 in 10.0 mi West 10.4 mph - N/A   Overcast
3:56 PM 36.0 °F 29.6 °F 21.9 °F 57% 30.26 in 10.0 mi West 8.1 mph - N/A   Overcast
4:56 PM 37.9 °F - 18.0 °F 45% 30.26 in 10.0 mi Calm Calm - N/A   Overcast
5:56 PM 37.0 °F 33.3 °F 19.9 °F 50% 30.27 in 10.0 mi NNW 4.6 mph - N/A   Overcast
6:56 PM 36.0 °F - 19.0 °F 50% 30.27 in 10.0 mi Calm Calm - N/A   Overcast
7:56 PM 35.1 °F - 19.9 °F 54% 30.27 in 10.0 mi Calm Calm - N/A   Overcast
8:56 PM 34.0 °F - 21.0 °F 59% 30.27 in 10.0 mi Calm Calm - N/A   Overcast
9:56 PM 33.1 °F - 21.9 °F 64% 30.28 in 10.0 mi Calm Calm - N/A   Overcast
10:56 PM 32.0 °F - 23.0 °F 69% 30.28 in 10.0 mi Calm Calm - N/A   Overcast
11:56 PM 32.0 °F 28.7 °F 21.9 °F 66% 30.29 in 10.0 mi WSW 3.5 mph - N/A   Overcast